Regional Weather Roundup
Issued by NWS

Home | Current Version | Previous Version | Graphics & Text | Print | Product List | Glossary On
Versions: 1 2 3 4 5 6 7 8 9 10 11 12 13 14 15 16 17 18 19 20 21 22 23 24 25 26 27 28 29 30 31 32 33 34 35 36 37 38 39 40 41 42 43 44 45 46 47 48 49 50
000
ASUS43 KFSD 310410
RWRSD

WEATHER ROUNDUP FOR SOUTH DAKOTA
NATIONAL WEATHER SERVICE SIOUX FALLS SD
1100 PM CDT WED JUL 30 2014

NOTE: "FAIR" INDICATES FEW OR NO CLOUDS BELOW 12,000 FEET WITH NO
SIGNIFICANT WEATHER AND/OR OBSTRUCTIONS TO VISIBILITY.


SDZ001>005-009-010-012>017-310500-
NORTHWEST AND NORTH CENTRAL SOUTH DAKOTA

CITY           SKY/WX    TMP DP  RH WIND       PRES   REMARKS
BUFFALO          N/A     73  52  47 CALM      30.12R
FAITH            N/A     67  55  65 NE8       30.14R
MOBRIDGE         N/A     70  58  65 E9        30.09R
$$

SDZ012>016-024>037-041>051-057-063-072>074-310500-
SOUTHWEST AND SOUTH CENTRAL SOUTH DAKOTA

CITY           SKY/WX    TMP DP  RH WIND       PRES   REMARKS
RAPID CTY ARPT MOCLDY    65  50  58 NW10      30.17R
PIERRE         PTCLDY    70  57  63 E6        30.07R
CUSTER         PTCLDY    61  45  55 N6        30.31R
ELLSWORTH AFB  PTCLDY    66  50  56 NW8       30.18R
PHILIP         PTCLDY    67  49  52 NW8       30.07R
PINE RIDGE     MOCLDY    61  52  72 CALM      30.17R
WINNER         FAIR      71  53  52 SE10      30.09R
$$

SDZ004>011-016>023-039-040-310500-
NORTHEAST SOUTH DAKOTA

CITY           SKY/WX    TMP DP  RH WIND       PRES   REMARKS
ABERDEEN       CLOUDY    64  57  78 CALM      30.10R
WATERTOWN      CLEAR     64  55  72 CALM      30.11R
SISSETON         N/A     60  56  86 W3        30.07S
$$

SDZ017-020-022-023-036>040-048>070-310500-
SOUTHEAST SOUTH DAKOTA

CITY           SKY/WX    TMP DP  RH WIND       PRES   REMARKS
SIOUX FALLS    CLEAR     64  55  72 CALM      30.11R
HURON          CLEAR     66  57  72 MISG      30.08S
CHAMBERLAIN    PTCLDY    68  55  64 SE9       30.09S
MITCHELL       CLEAR     66  58  75 S6        30.10R
YANKTON        CLEAR     63  55  77 CALM      30.11S
$$

ABBREVIATIONS USED IN REMARKS
   TC - TEMPERATURE IN CELSIUS
  WCI - WIND CHILL INDEX
   HX - HEAT INDEX
  VSB - VISIBILITY



USA.gov is the U.S. government's official web portal to all federal, state and local government web resources and services.